Weather History for Arlington, WA

Change the Weather History Date:

Friday, November 9, 2012

  Actual Average Record
Temperature  
Mean Temperature 36 °F -  
Max Temperature 46 °F 54 °F 62 °F (1997)
Min Temperature 26 °F 47 °F 26 °F (2012)
Degree Days  
Heating Degree Days 29    
Moisture  
Dew Point 30 °F    
Average Humidity 84    
Maximum Humidity 100    
Minimum Humidity 57    
Precipitation  
Precipitation 0.00 in - - ()
Sea Level Pressure  
Sea Level Pressure 29.91 in    
Wind  
Wind Speed 1 mph (NNW)    
Max Wind Speed 6 mph    
Max Gust Speed -    
Visibility 8 miles    
Events      
Averages and records for this station are not official NWS values.
T = Trace of Precipitation, MM = Missing Value Source: NWS Daily Summary

Daily Weather History Graph

Daily Weather History Graph

Search for Another Location

Airport:

Trip Planner

Search our weather history database for the weather conditions in past years. The results will help you decide how hot, cold, wet, or windy it might be!

Date:

Astronomy

Nov. 09, 2012 Rise Set
Actual Time 7:07 AM PST 4:37 PM PST
Civil Twilight 6:33 AM PST 5:10 PM PST
Nautical Twilight 5:56 AM PST 5:48 PM PST
Astronomical Twilight 5:19 AM PST 6:24 PM PST
Moon 1:51 AM PST (11/9) 2:11 PM PST (11/9)
Length of Visible Light 10h 36m
Length of Day
9h 29m
Waning Crescent, 22% of the Moon is Illuminated
Nov 9
Waning Crescent
Nov 13
New
Nov 20
First Quarter
Nov 28
Full
Dec 6
Last Quarter

Hourly Weather History & Observations

Time (PST) Temp. Windchill Dew Point Humidity Pressure Visibility Wind Dir Wind Speed Gust Speed Precip Events Conditions
12:15 AM 30.2 °F - 28.4 °F 93% 29.86 in 1.8 mi Calm Calm - N/A   Clear
12:35 AM 28.4 °F - 26.6 °F 93% 29.86 in 4.0 mi Calm Calm - N/A   Clear
12:55 AM 28.4 °F 23.3 °F 24.8 °F 86% 29.86 in 9.0 mi North 4.6 mph - N/A   Clear
1:15 AM 28.4 °F - 26.6 °F 93% 29.86 in 4.0 mi Calm Calm - N/A   Clear
1:35 AM 30.2 °F - 30.2 °F 100% 29.86 in 10.0 mi Calm Calm - N/A   Clear
1:55 AM 30.2 °F - 28.4 °F 93% 29.86 in 4.0 mi Calm Calm - N/A   Clear
2:15 AM 28.4 °F - 26.6 °F 93% 29.87 in 0.8 mi Calm Calm - N/A   Unknown
2:35 AM 28.4 °F - 28.4 °F 100% 29.87 in 1.0 mi Calm Calm - N/A   Clear
2:55 AM 28.4 °F - 26.6 °F 93% 29.87 in 6.0 mi Calm Calm - N/A   Scattered Clouds
3:15 AM 28.4 °F - 26.6 °F 93% 29.87 in 10.0 mi Calm Calm - N/A   Mostly Cloudy
3:35 AM 28.4 °F - 26.6 °F 93% 29.87 in 10.0 mi Calm Calm - N/A   Mostly Cloudy
3:55 AM 28.4 °F - 24.8 °F 86% 29.87 in 10.0 mi Calm Calm - N/A   Partly Cloudy
4:15 AM 28.4 °F - 24.8 °F 86% 29.87 in 7.0 mi Calm Calm - N/A   Mostly Cloudy
4:35 AM 28.4 °F - 26.6 °F 93% 29.88 in 10.0 mi Calm Calm - N/A   Overcast
4:55 AM 28.4 °F - 26.6 °F 93% 29.88 in 10.0 mi Calm Calm - N/A   Overcast
5:15 AM 28.4 °F - 26.6 °F 93% 29.88 in 10.0 mi Calm Calm - N/A   Mostly Cloudy
5:35 AM 28.4 °F - 26.6 °F 93% 29.89 in 10.0 mi Calm Calm - N/A   Mostly Cloudy
5:55 AM 30.2 °F - 26.6 °F 86% 29.89 in 10.0 mi Calm Calm - N/A   Overcast
6:15 AM 30.2 °F - 28.4 °F 93% 29.89 in 10.0 mi Calm Calm - N/A   Overcast
6:35 AM 30.2 °F 26.7 °F 28.4 °F 93% 29.89 in 10.0 mi North 3.5 mph - N/A   Overcast
6:55 AM 30.2 °F - 28.4 °F 93% 29.89 in 10.0 mi Calm Calm - N/A   Overcast
7:15 AM 28.4 °F - 24.8 °F 86% 29.89 in 10.0 mi Calm Calm - N/A   Mostly Cloudy
7:35 AM 28.4 °F - 26.6 °F 93% 29.90 in 10.0 mi Calm Calm - N/A   Clear
7:55 AM 30.2 °F - 26.6 °F 86% 29.90 in 10.0 mi Calm Calm - N/A   Clear
8:15 AM 30.2 °F 26.7 °F 28.4 °F 93% 29.91 in 10.0 mi North 3.5 mph - N/A   Partly Cloudy
8:35 AM 32.0 °F - 30.2 °F 93% 29.91 in 10.0 mi Calm Calm - N/A   Clear
8:55 AM 33.8 °F - 30.2 °F 87% 29.91 in 10.0 mi Calm Calm - N/A   Partly Cloudy
9:15 AM 35.6 °F - 32.0 °F 87% 29.91 in 10.0 mi Calm Calm - N/A   Clear
9:35 AM 35.6 °F - 32.0 °F 87% 29.91 in 10.0 mi Calm Calm - N/A   Clear
9:55 AM 37.4 °F - 33.8 °F 87% 29.92 in 10.0 mi Calm Calm - N/A   Clear
10:15 AM 39.2 °F - 33.8 °F 81% 29.92 in 10.0 mi Calm Calm - N/A   Clear
10:35 AM 39.2 °F - 33.8 °F 81% 29.92 in 10.0 mi Calm Calm - N/A   Clear
10:55 AM 41.0 °F - 33.8 °F 76% 29.92 in 10.0 mi Calm Calm - N/A   Clear
11:15 AM 42.8 °F - 35.6 °F 76% 29.92 in 10.0 mi Calm Calm - N/A   Clear
11:35 AM 42.8 °F - 35.6 °F 76% 29.92 in 10.0 mi Calm Calm - N/A   Clear
11:55 AM 42.8 °F - 35.6 °F 76% 29.92 in 10.0 mi Calm Calm - N/A   Clear
12:15 PM 44.6 °F - 35.6 °F 71% 29.91 in 10.0 mi Calm Calm - N/A   Clear
12:35 PM 44.6 °F - 35.6 °F 71% 29.91 in 10.0 mi Calm Calm - N/A   Clear
12:55 PM 46.4 °F - 35.6 °F 66% 29.90 in 10.0 mi Calm Calm - N/A   Clear
1:15 PM 46.4 °F - 33.8 °F 62% 29.91 in 10.0 mi Calm Calm - N/A   Clear
1:35 PM 46.4 °F - 33.8 °F 62% 29.90 in 10.0 mi Calm Calm - N/A   Partly Cloudy
1:55 PM 46.4 °F - 33.8 °F 62% 29.90 in 10.0 mi Calm Calm - N/A   Scattered Clouds
2:15 PM 46.4 °F - 33.8 °F 62% 29.90 in 10.0 mi Calm Calm - N/A   Partly Cloudy
2:35 PM 46.4 °F 45.2 °F 32.0 °F 57% 29.90 in 10.0 mi SSW 3.5 mph - N/A   Clear
2:55 PM 46.4 °F - 33.8 °F 62% 29.90 in 10.0 mi Calm Calm - N/A   Clear
3:15 PM 44.6 °F 41.4 °F 33.8 °F 66% 29.90 in 10.0 mi NW 5.8 mph - N/A   Clear
3:35 PM 44.6 °F 41.4 °F 33.8 °F 66% 29.90 in 10.0 mi WNW 5.8 mph - N/A   Partly Cloudy
3:55 PM 44.6 °F 42.2 °F 33.8 °F 66% 29.91 in 10.0 mi WNW 4.6 mph - N/A   Mostly Cloudy
4:15 PM 42.8 °F 40.1 °F 33.8 °F 70% 29.91 in 10.0 mi NW 4.6 mph - N/A   Overcast
4:35 PM 41.0 °F 39.0 °F 32.0 °F 70% 29.91 in 10.0 mi WNW 3.5 mph - N/A   Overcast
4:55 PM 39.2 °F - 32.0 °F 75% 29.91 in 10.0 mi Calm Calm - N/A   Overcast
5:15 PM 39.2 °F - 32.0 °F 75% 29.91 in 10.0 mi Calm Calm - N/A   Scattered Clouds
5:35 PM 37.4 °F - 32.0 °F 81% 29.92 in 10.0 mi Calm Calm - N/A   Clear
5:55 PM 37.4 °F - 30.2 °F 75% 29.92 in 10.0 mi Calm Calm - N/A   Clear
6:15 PM 33.8 °F - 28.4 °F 81% 29.93 in 10.0 mi Calm Calm - N/A   Clear
6:35 PM 33.8 °F - 30.2 °F 87% 29.92 in 10.0 mi Calm Calm - N/A   Clear
7:15 PM 33.8 °F - 30.2 °F 87% 29.93 in 10.0 mi Calm Calm - N/A   Clear
7:35 PM 32.0 °F 28.7 °F 28.4 °F 87% 29.93 in 10.0 mi NNE 3.5 mph - N/A   Clear
7:55 PM 32.0 °F 27.5 °F 30.2 °F 93% 29.93 in 10.0 mi NNE 4.6 mph - N/A   Clear
8:15 PM 30.2 °F - 26.6 °F 86% 29.94 in 10.0 mi Calm Calm - N/A   Clear
8:35 PM 32.0 °F - 30.2 °F 93% 29.94 in 8.0 mi Calm Calm - N/A   Clear
8:55 PM 30.2 °F - 28.4 °F 93% 29.95 in 9.0 mi Calm Calm - N/A   Clear
9:15 PM 30.2 °F - 28.4 °F 93% 29.95 in 5.0 mi Calm Calm - N/A   Clear
9:35 PM 30.2 °F - 28.4 °F 93% 29.95 in 6.0 mi Calm Calm - N/A   Clear
9:55 PM 30.2 °F - 28.4 °F 93% 29.96 in 7.0 mi Calm Calm - N/A   Clear
10:15 PM 30.2 °F - 26.6 °F 86% 29.96 in 5.0 mi Calm Calm - N/A   Clear
10:35 PM 28.4 °F - 28.4 °F 100% 29.96 in 0.5 mi Calm Calm - N/A   Unknown
10:55 PM 28.4 °F - 26.6 °F 93% 29.97 in 1.8 mi Calm Calm - N/A   Clear
11:15 PM 26.6 °F - 24.8 °F 93% 29.97 in 2.5 mi Calm Calm - N/A   Clear
11:35 PM 28.4 °F - 26.6 °F 93% 29.97 in 5.0 mi Calm Calm - N/A   Clear
11:55 PM 26.6 °F - 24.8 °F 93% 29.98 in 1.0 mi Calm Calm - N/A   Clear